Notices

What's New in latest Release from April 7th, 2021:

- Updated Glossary, including Speed of Maximum Gust, and Total Hourly Precipitation

- Updated national and regional climate services offices contacts and prices information

- Addition of station inventory lists for 1981-2010, 1971-2000, and 1961-1990 Normals.

If you haven't already, please take our survey and provide feedback about our website: https://eccc.sondage-survey.ca/f/LanguageSelection.aspx?s=442ca660-fcf1-47c0-95a9-59707d6fd709

Hourly Data Report for December 08, 2019

SAINT JOHN A
NEW BRUNSWICK
Current Station Operator: NAVCAN

45°18'58.000" N
65°53'24.000" W
108.80 m
8104901
71609
YSJ

Download Data

Hourly Data (December 2019)
Hourly Data Report for December 8, 2019
TIME
LST
Temp Definition
°C
Dew Point Definition
°C
Rel Hum Definition
%
Precip. Amount Definition
mm

Wind Dir Definition
10's deg

Wind Spd Definition
km/h
Visibility Definition
km
Stn Press Definition
kPa
Hmdx Definition


Wind Chill Definition


Weather Definition


00:00 -9.9 -13.4 76   29 10 24.1 101.28   -15 LegendNANA
01:00 -9.9 -13.6 75   29 15 24.1 101.28   -17 LegendNANA
02:00 -10.2 -13.6 77   30 16 24.1 101.32   -17 Clear
03:00 -10.3 -13.7 76   31 17 24.1 101.37   -18 LegendNANA
04:00 -11.7 -14.8 78   32 14 24.1 101.38   -19 LegendNANA
05:00 -13.2 -15.5 83   31 9 24.1 101.41   -19 Clear
06:00 -12.2 -15.1 79   30 5 24.1 101.45   -15 LegendNANA
07:00 -11.6 -14.2 81   28 9 24.1 101.53   -17 LegendNANA
08:00 -11.6 -14.3 80   27 5 24.1 101.55   -15 Mainly Clear
09:00 -9.9 -13.4 76   25 7 24.1 101.61   -14 LegendNANA
10:00 -8.4 -12.9 70   28 8 24.1 101.68   -13 LegendNANA
11:00 -6.1 -12.4 61   28 13 24.1 101.71   -11 Mainly Clear
12:00 -5.4 -12.1 59   30 11 24.1 101.65   -10 LegendNANA
13:00 -3.8 -11.6 55   26 11 24.1 101.59   -8 LegendNANA
14:00 -3.1 -11.2 54   26 11 24.1 101.57   -7 Mainly Clear
15:00 -3.0 -11.1 54   36 3 24.1 101.53   -4 LegendNANA
16:00 -4.2 -10.4 62   20 11 24.1 101.54   -9 LegendNANA
17:00 -4.9 -9.8 69   17 4 24.1 101.54   -7 Mostly Cloudy
18:00 -3.3 -6.8 77   21 17 24.1 101.51   -9 LegendNANA
19:00 -0.7 -5.0 73   22 21 24.1 101.50   -6 LegendNANA
20:00 0.4 -4.1 72   21 29 24.1 101.45     Mostly Cloudy
21:00 1.6 -3.3 70   21 30 24.1 101.36     LegendNANA
22:00 2.6 -2.5 69   22 31 24.1 101.29     LegendNANA
23:00 3.3 -1.9 69   21 36 24.1 101.24     Cloudy

Notes on Data Quality.

Legend

  • E = Estimated
  • M = Missing
  • NA = Not Available*
  • [empty] = Indicates an unobserved value
Date modified: